Flight Briefing for CPX17

Departure Arrival
Taiwan Taoyuan International Airport (RCTP)
Click to view FAA NOTAMS
Ted Stevens Anchorage International Airport (PANC)
Click to view FAA NOTAMS
Departure Time Arrival Time
N/A N/A
Aircraft Distance
B747-400BCF 4065nm
Departure METAR Arrival METAR
RCTP 230630Z 02009KT 9999 FEW018 SCT050 BKN120 27/23 Q1011 NOSIG RMK A2986 PANC 230553Z 17010G15KT 10SM SCT080 BKN100 BKN160 OVC200 12/01 A2995 RMK AO2 SLP142 T01170011 50000 $
Suggested Route
MOLKA M750 MIDAI M750 BUNGU Y81 SYOYU Y809 KAGIS A590 PABBA A590 PASRO A590 HAMND NEELL6


View recent IFR Routes data
Notes



Charts and Procedures

Charts for RCTP
No chart available
Charts for PANC
No chart available

Windy.com Weather Map